User: anonymous   Login
Location: Newark
(60.1950°N, 25.0308°E)
Time: 11:29:40
(UTC+00:00)
Language:

STRAND 1 - Orbit

View from above orbital plane
View from above orbital plane
View from above satellite
View from above satellite

Ground track
Ground track

The orbit data is extracted from the following two-line orbital elements,

1 39090U 13009E   19343.81179206 +.00000050 +00000-0 +32666-4 0  9990
2 39090 098.4695 186.7101 0009990 127.3501 232.8596 14.35109091355342
Epoch (UTC): 09 December 2019 19:28:58
Eccentricity: 0.0009990
inclination: 98.4695°
perigee height: 767 km
apogee height: 782 km
right ascension of ascending node: 186.7101°
argument of perigee: 127.3501°
revolutions per day: 14.35109091
mean anomaly at epoch: 232.8596°
orbit number at epoch: 35534

The dashed part of the orbit path shows where the satellite is in the earth's shadow,  

DLR